Regional Weather Roundup
Issued by NWS

Home | Current Version | Previous Version | Graphics & Text | Print | Product List | Glossary On
Versions: 1 2 3 4 5 6 7 8 9 10 11 12 13 14 15 16 17 18 19 20 21 22 23 24 25 26 27 28 29 30 31 32 33 34 35 36 37 38 39 40 41 42 43 44 45 46 47 48 49 50
000
ASUS43 KLSX 051159
RWRMO

WEATHER SUMMARY FOR MISSOURI
NATIONAL WEATHER SERVICE SPRINGFIELD MO
600 AM CST THU MAR 05 2015

NOTE: "FAIR" INDICATES FEW OR NO CLOUDS BELOW 12,000 FEET WITH NO
       SIGNIFICANT WEATHER AND/OR OBSTRUCTIONS TO VISIBILITY.
       CURRENT SKY AND/OR WEATHER CONDITIONS ARE NOT AVAILABLE FOR
       CHILLICOTHE AND FARMINGTON.

MOZ001>031-035>038-043-044-053-054-051300-
...NORTHERN AND WESTERN MISSOURI...

CITY           SKY/WX    TMP DP  RH WIND       PRES   REMARKS
KANSAS CTY INT CLEAR      7  -1  70 N8        30.52R WCI  -6
6HR MIN TEMP:   7; 6HR MAX TEMP:  18;

KANSAS C DTWN  CLEAR     13   0  56 N8        30.55R WCI   2
6HR MIN TEMP:  13; 6HR MAX TEMP:  24;

LEE`S SUMMIT   CLEAR     12  -1  56 N9        30.52R WCI   0
6HR MIN TEMP:  11; 6HR MAX TEMP:  23;

ST JOSEPH      CLEAR      4  -2  76 N3        30.56R
6HR MIN TEMP:   4; 6HR MAX TEMP:  14;

CHILLICOTHE      N/A      9   0  67 NW7       30.54R WCI  -2
6HR MIN TEMP:   9; 6HR MAX TEMP:  19;


$$
MOZ066>068-077>081-088>096-101>105-051300-
...SOUTHWEST MISSOURI...

CITY           SKY/WX    TMP DP  RH WIND       PRES   REMARKS
SPRINGFIELD    CLEAR     15   7  70 NW6       30.43R WCI   6
6HR MIN TEMP:  15; 6HR MAX TEMP:  22;

JOPLIN         CLEAR     18   9  68 NW6       30.49R WCI  10
6HR MIN TEMP:  16; 6HR MAX TEMP:  23;


$$
MOZ032>034-039>042-045>050-055>058-069>072-051300-
...CENTRAL MISSOURI...

CITY           SKY/WX    TMP DP  RH WIND       PRES   REMARKS
COLUMBIA       CLEAR     14   6  70 N8        30.46R WCI   3
6HR MIN TEMP:  14; 6HR MAX TEMP:  21;

JEFFERSON CITY PTCLDY    19   4  51 NW12      30.50R WCI   7
6HR MIN TEMP:  19; 6HR MAX TEMP:  22;

ROLLA          MOCLDY    17   7  64 NW8       30.40R WCI   7
6HR MIN TEMP:  17; 6HR MAX TEMP:  20;

SEDALIA        CLEAR     15   4  61 NW8       30.50R WCI   4
6HR MIN TEMP:  15; 6HR MAX TEMP:  22;

OSAGE BEACH    CLEAR     18   1  49 NW6       30.46R WCI   9

$$
MOZ051-052-059>065-051300-
...EAST CENTRAL MISSOURI...

CITY           SKY/WX    TMP DP  RH WIND       PRES   REMARKS
ST LOUIS INTL  CLOUDY    18   4  54 NE9       30.46R WCI   7
6HR MIN TEMP:  18; 6HR MAX TEMP:  22;

SPIRIT OF STL  CLOUDY    19   5  54 NE9       30.46R WCI   8
6HR MIN TEMP:  19; 6HR MAX TEMP:  22;

ST CHARLES     CLOUDY    15   5  64 N10       30.47R WCI   2
6HR MIN TEMP:  15; 6HR MAX TEMP:  20;


$$
MOZ072>076-082>087-097>100-106>115-051300-
...SOUTH CENTRAL AND SOUTHEAST MISSOURI...

CITY           SKY/WX    TMP DP  RH WIND       PRES   REMARKS
CAPE GIRARDEAU MOCLDY    20  10  65 N8        30.44R WCI  10
6HR MIN TEMP:  20; 6HR MAX TEMP:  21; 6HR PCP: TRACE;

FARMINGTON     CLOUDY    18   9  68 N5        30.42R WCI  11
6HR MIN TEMP:  18; 6HR MAX TEMP:  19;

POPLAR BLUFF   CLOUDY    22   8  55 N10       30.43R WCI  11
6HR MIN TEMP:  21; 6HR MAX TEMP:  22;

WEST PLAINS    CLOUDY    19   6  57 NW6       30.40R WCI  11
6HR MIN TEMP:  19; 6HR MAX TEMP:  20;


$$



USA.gov is the U.S. government's official web portal to all federal, state and local government web resources and services.